ZIYUAN 3-2 (ZY 3-2) (41556 NORAD) Tracking and Keplerian Element Data

This shows tracking and keplerian element data for the satellite.

Feedback or suggestion? Click here.




ElementValue
Catalog41556
NameZIYUAN 3-2 (ZY 3-2)
Epoch Orbit19183
Epoch Day316.87070781
Epoch Year2019
RAAN31.4433
Inclination97.387
Eccentricity0.0004464
Argument of Perigee68.6054
Mean Anonmoly43.0614
Mean Motion15.21294287
Decay Rate5.7E-06
L11 41556U 16033A 19316.87070781 .00000570 00000-0 28554-4 0 9992
L22 41556 97.3870 31.4433 0004464 68.6054 43.0614 15.21294287191833

Live tracking and technical data element details for ZIYUAN 3-2 (ZY 3-2) (NORAD 41556). ZIYUAN 3-2 (ZY 3-2) can be tracked NOW for your location showing map with azimuth and elevation plus other details from your city location.

Track the satellite on the map from your city or location and see movement details for azimuth, elevation, latitude, longitude, range, height, and movement on the map or in text.







IsCatalogInMostPopularTable: catalog: 41556, numindb: 335
Update: records affected: 1



GetName: 41556 ZIYUAN 3-2 (ZY 3-2)

Hit Count: updated at: Wed, 13 Nov 2019 17:14:55 GMT